When you browse on this site, cookies collect data to enhance your experience and personalize the content and advertising you see.
Visit our Privacy Policy to learn more. By continuing to use the site, you agree to this use of cookies and data.
  • en Suisse
  • Liste des pays
  • À 7 jours
  • Température de l'eau
  • Carte satellitaire
  • Carte météo
  • Widgets météo
  • user-avatar
    Se connecter

    Météo par heure à Canberra

    Ce jour, 22 Mars, Vendredi

    Heure Température Précipitation Vent Pression Humidité
    00:00 +19°C° 0 mm 1 m/s 710 mmHg 95%
    01:00 +18°C° 0 mm 1 m/s 710 mmHg 95%
    02:00 +18°C° 0 mm 1 m/s 710 mmHg 94%
    03:00 +18°C° 0 mm 1 m/s 710 mmHg 94%
    04:00 +18°C° 0 mm 1 m/s 710 mmHg 93%
    05:00 +19°C° 0 mm 1 m/s 710 mmHg 92%
    06:00 +19°C° 0 mm 1 m/s 710 mmHg 91%
    07:00 +19°C° 0 mm 1 m/s 711 mmHg 91%
    08:00 +20°C° 0 mm 1 m/s 711 mmHg 85%
    09:00 +21°C° 0 mm 1 m/s 711 mmHg 79%
    10:00 +22°C° 0 mm 1 m/s 711 mmHg 73%
    11:00 +24°C° 0.4 mm 1 m/s 711 mmHg 66%
    12:00 +26°C° 0.4 mm 1 m/s 711 mmHg 59%
    13:00 +27°C° 0.4 mm 1 m/s 710 mmHg 52%
    14:00 +27°C° 0.7 mm 1 m/s 710 mmHg 53%
    15:00 +26°C° 0.7 mm 2 m/s 709 mmHg 55%
    16:00 +25°C° 0.7 mm 2 m/s 709 mmHg 57%
    17:00 +24°C° 0.2 mm 2 m/s 709 mmHg 64%
    18:00 +21°C° 0.2 mm 2 m/s 709 mmHg 72%
    19:00 +20°C° 0.2 mm 1 m/s 709 mmHg 80%
    20:00 +20°C° 0.1 mm 1 m/s 709 mmHg 83%
    21:00 +19°C° 0.1 mm 1 m/s 709 mmHg 86%
    22:00 +19°C° 0.1 mm 1 m/s 709 mmHg 89%
    23:00 +18°C° 0 mm 1 m/s 709 mmHg 90%

    Demain, 23 Mars, Samedi

    Heure Température Précipitation Vent Pression Humidité
    00:00 +18°C° 0 mm 1 m/s 709 mmHg 92%
    01:00 +16°C° 0 mm 1 m/s 709 mmHg 94%
    02:00 +16°C° 0 mm 1 m/s 708 mmHg 94%
    03:00 +16°C° 0 mm 1 m/s 708 mmHg 94%
    04:00 +15°C° 0 mm 1 m/s 707 mmHg 94%
    05:00 +16°C° 0 mm 1 m/s 707 mmHg 93%
    06:00 +16°C° 0 mm 1 m/s 707 mmHg 91%
    07:00 +16°C° 0 mm 1 m/s 708 mmHg 90%
    08:00 +20°C° 0 mm 1 m/s 708 mmHg 79%
    09:00 +22°C° 0 mm 1 m/s 708 mmHg 67%
    10:00 +25°C° 0 mm 1 m/s 709 mmHg 56%
    11:00 +25°C° 0 mm 2 m/s 708 mmHg 54%
    12:00 +26°C° 0 mm 3 m/s 708 mmHg 52%
    13:00 +26°C° 0 mm 4 m/s 708 mmHg 50%
    14:00 +26°C° 0 mm 3 m/s 707 mmHg 50%
    15:00 +26°C° 0 mm 3 m/s 707 mmHg 51%
    16:00 +25°C° 0 mm 2 m/s 706 mmHg 51%
    17:00 +24°C° 0 mm 1 m/s 706 mmHg 56%
    18:00 +23°C° 0 mm 1 m/s 705 mmHg 61%
    19:00 +19°C° 0 mm 0 m/s 705 mmHg 66%
    20:00 +19°C° 0 mm 0 m/s 706 mmHg 68%
    21:00 +20°C° 0 mm 1 m/s 706 mmHg 71%
    22:00 +20°C° 0 mm 1 m/s 706 mmHg 74%
    23:00 +19°C° 0 mm 1 m/s 706 mmHg 75%

    Après-demain, 24 Mars, Dimanche

    Heure Température Précipitation Vent Pression Humidité
    00:00 +17°C° 0 mm 0 m/s 706 mmHg 77%
    01:00 +17°C° 0 mm 0 m/s 706 mmHg 78%
    02:00 +17°C° 0 mm 0 m/s 705 mmHg 79%
    03:00 +18°C° 0 mm 1 m/s 705 mmHg 80%
    04:00 +18°C° 0 mm 1 m/s 705 mmHg 80%
    05:00 +18°C° 0 mm 1 m/s 706 mmHg 79%
    06:00 +17°C° 0 mm 0 m/s 706 mmHg 77%
    07:00 +17°C° 0 mm 0 m/s 706 mmHg 75%
    08:00 +21°C° 0 mm 1 m/s 707 mmHg 65%
    09:00 +23°C° 0 mm 1 m/s 708 mmHg 55%
    10:00 +26°C° 0 mm 2 m/s 708 mmHg 45%
    11:00 +25°C° 0 mm 2 m/s 708 mmHg 44%
    12:00 +25°C° 0 mm 2 m/s 708 mmHg 43%
    13:00 +25°C° 0 mm 3 m/s 708 mmHg 42%
    14:00 +26°C° 0 mm 3 m/s 708 mmHg 42%
    15:00 +26°C° 0 mm 3 m/s 708 mmHg 43%
    16:00 +27°C° 0 mm 3 m/s 707 mmHg 43%
    17:00 +25°C° 0.1 mm 2 m/s 707 mmHg 52%
    18:00 +23°C° 0.1 mm 2 m/s 707 mmHg 62%
    19:00 +21°C° 0.1 mm 1 m/s 707 mmHg 71%
    20:00 +20°C° 0.4 mm 1 m/s 707 mmHg 75%
    21:00 +20°C° 0.4 mm 1 m/s 707 mmHg 79%
    22:00 +17°C° 0.4 mm 0 m/s 707 mmHg 83%
    23:00 +17°C° 0 mm 0 m/s 706 mmHg 84%

    25 Mars, Lundi

    Heure Température Précipitation Vent Pression Humidité
    00:00 +16°C° 0 mm 0 m/s 706 mmHg 84%
    01:00 +18°C° 0 mm 1 m/s 705 mmHg 84%
    02:00 +19°C° 0 mm 1 m/s 705 mmHg 81%
    03:00 +19°C° 0 mm 1 m/s 704 mmHg 79%
    04:00 +20°C° 0 mm 1 m/s 704 mmHg 76%
    05:00 +19°C° 0.1 mm 2 m/s 704 mmHg 76%
    06:00 +20°C° 0.1 mm 2 m/s 704 mmHg 75%
    07:00 +20°C° 0.1 mm 3 m/s 704 mmHg 75%
    08:00 +21°C° 0.1 mm 5 m/s 704 mmHg 72%
    09:00 +22°C° 0.1 mm 7 m/s 704 mmHg 68%
    10:00 +24°C° 0.1 mm 9 m/s 704 mmHg 65%
    11:00 +23°C° 0.6 mm 8 m/s 704 mmHg 70%
    12:00 +22°C° 0.6 mm 8 m/s 704 mmHg 74%
    13:00 +21°C° 0.6 mm 7 m/s 704 mmHg 79%
    14:00 +22°C° 0.1 mm 8 m/s 704 mmHg 77%
    15:00 +22°C° 0.1 mm 8 m/s 704 mmHg 74%
    16:00 +22°C° 0.1 mm 8 m/s 704 mmHg 72%
    17:00 +21°C° 0.1 mm 8 m/s 704 mmHg 75%
    18:00 +20°C° 0.1 mm 7 m/s 705 mmHg 77%
    19:00 +18°C° 0.1 mm 7 m/s 705 mmHg 80%
    20:00 +17°C° 0 mm 6 m/s 705 mmHg 77%
    21:00 +16°C° 0 mm 5 m/s 706 mmHg 73%
    22:00 +15°C° 0 mm 4 m/s 706 mmHg 69%
    23:00 +14°C° 0 mm 3 m/s 706 mmHg 67%

    26 Mars, Mardi

    Heure Température Précipitation Vent Pression Humidité
    00:00 +14°C° 0 mm 3 m/s 706 mmHg 66%
    01:00 +14°C° 0 mm 2 m/s 707 mmHg 64%
    02:00 +14°C° 0 mm 2 m/s 707 mmHg 62%
    03:00 +13°C° 0 mm 2 m/s 707 mmHg 60%
    04:00 +12°C° 0 mm 2 m/s 707 mmHg 59%
    05:00 +12°C° 0 mm 1 m/s 708 mmHg 60%
    06:00 +11°C° 0 mm 1 m/s 708 mmHg 62%
    07:00 +11°C° 0 mm 1 m/s 709 mmHg 64%
    08:00 +13°C° 0 mm 1 m/s 709 mmHg 55%
    09:00 +15°C° 0 mm 1 m/s 709 mmHg 45%
    10:00 +18°C° 0 mm 1 m/s 710 mmHg 36%
    11:00 +20°C° 0 mm 1 m/s 710 mmHg 32%
    12:00 +22°C° 0 mm 1 m/s 710 mmHg 28%
    13:00 +24°C° 0 mm 1 m/s 710 mmHg 24%
    14:00 +24°C° 0 mm 1 m/s 710 mmHg 25%
    15:00 +23°C° 0 mm 1 m/s 710 mmHg 26%
    16:00 +23°C° 0 mm 1 m/s 710 mmHg 26%
    17:00 +20°C° 0 mm 2 m/s 710 mmHg 38%
    18:00 +18°C° 0 mm 3 m/s 711 mmHg 50%
    19:00 +14°C° 0 mm 4 m/s 711 mmHg 61%
    20:00 +13°C° 0 mm 3 m/s 712 mmHg 67%
    21:00 +12°C° 0 mm 3 m/s 712 mmHg 73%
    22:00 +12°C° 0 mm 2 m/s 713 mmHg 79%
    23:00 +11°C° 0 mm 3 m/s 713 mmHg 78%

    27 Mars, Mercredi

    Heure Température Précipitation Vent Pression Humidité
    00:00 +10°C° 0 mm 3 m/s 713 mmHg 77%
    01:00 +10°C° 0 mm 3 m/s 713 mmHg 76%
    02:00 +9°C° 0 mm 3 m/s 714 mmHg 76%
    03:00 +9°C° 0 mm 3 m/s 714 mmHg 75%
    04:00 +8°C° 0 mm 3 m/s 714 mmHg 75%
    05:00 +8°C° 0 mm 3 m/s 715 mmHg 74%
    06:00 +8°C° 0 mm 3 m/s 715 mmHg 74%
    07:00 +8°C° 0 mm 3 m/s 716 mmHg 74%
    08:00 +11°C° 0 mm 4 m/s 716 mmHg 68%
    09:00 +13°C° 0 mm 4 m/s 716 mmHg 62%
    10:00 +16°C° 0 mm 5 m/s 717 mmHg 56%
    11:00 +16°C° 0 mm 5 m/s 716 mmHg 57%
    12:00 +16°C° 0 mm 5 m/s 716 mmHg 59%
    13:00 +16°C° 0 mm 5 m/s 716 mmHg 60%
    14:00 +16°C° 0 mm 5 m/s 716 mmHg 64%
    15:00 +15°C° 0 mm 5 m/s 715 mmHg 68%
    16:00 +14°C° 0 mm 4 m/s 715 mmHg 71%
    17:00 +14°C° 0 mm 4 m/s 715 mmHg 74%
    18:00 +13°C° 0 mm 4 m/s 716 mmHg 77%
    19:00 +12°C° 0 mm 3 m/s 716 mmHg 80%
    20:00 +12°C° 0 mm 3 m/s 716 mmHg 84%
    21:00 +11°C° 0 mm 3 m/s 716 mmHg 89%
    22:00 +10°C° 0 mm 3 m/s 716 mmHg 93%
    23:00 +11°C° 0 mm 3 m/s 716 mmHg 91%
    Voir plus